Marina Di Campo Airport

Jump to: basic info | weather | frequencies | runways | comments

Related pages: nearby airports | nearby navaids | notams | map

Basic information (top)

Codes: EBA LIRJ
Location: lon 42.760300, lat 10.239400, elev 31 ft / 9 m msl
Status: medium_airport

Weather (top)

Current conditions for Bastia-Poretta Airport 36nm (66km) WSW (rec'd 2014/08/28 06:30Z):

LFKB 280630Z 00000KT 9999 SCT023 22/19 Q1013 NOSIG

Airport forecast for Bastia-Poretta Airport 36nm (66km) WSW (rec'd 2014/08/28 06:15Z):

TAF LFKB 280500Z 2806/2906 04008KT 9999 FEW020 BKN030 BKN040 
      BECMG 2810/2812 FEW026 TX28/2812Z TN19/2903Z

Frequencies (top)

Verify before use: may be inaccurate or out of date.

AFIS: 123.7 MHz (AFIS)

Runways (top)

16/34: 3,114 x 75 ft (949 x 23 m) — paved — not lighted — threshold 16 displaced 479 ft (146 m) — threshold 34 displaced 285 ft (87 m)

Latest comments (top)

No comments yet for Marina Di Campo Airport

More... (top)

See also NOTAMs and nearby airports and navaids, or visit the Marina Di Campo Airport page at the main OurAirports website..